Weather History for Perryton, TX

Change the Weather History Date:

Friday, May 17, 2013

  Actual Average Record
Temperature  
Mean Temperature 73 °F -  
Max Temperature 90 °F 78 °F 97 °F (1966)
Min Temperature 56 °F 48 °F 37 °F (1976)
Cooling Degree Days 8    
Growing Degree Days 23 (Base 50)    
Moisture  
Dew Point 59 °F    
Average Humidity 68    
Maximum Humidity 98    
Minimum Humidity 28    
Precipitation  
Precipitation 0.00 in - - ()
Sea Level Pressure  
Sea Level Pressure 29.85 in    
Wind  
Wind Speed 12 mph (SE)    
Max Wind Speed 24 mph    
Max Gust Speed 30 mph    
Visibility 8 miles    
Events      
Averages and records for this station are not official NWS values.
T = Trace of Precipitation, MM = Missing Value Source: NWS Daily Summary

Daily Weather History Graph

Daily Weather History Graph

Search for Another Location

Airport:

Trip Planner

Search our weather history database for the weather conditions in past years. The results will help you decide how hot, cold, wet, or windy it might be!

Date:

Astronomy

May. 17, 2013 Rise Set
Actual Time 6:34 AM CDT 8:44 PM CDT
Civil Twilight 6:05 AM CDT 9:13 PM CDT
Nautical Twilight 5:30 AM CDT 9:49 PM CDT
Astronomical Twilight 4:52 AM CDT 10:27 PM CDT
Moon 1:03 PM CDT (5/17) 1:42 AM CDT (5/17)
Length of Visible Light 15h 08m
Length of Day
14h 10m
Waxing Crescent, 45% of the Moon is Illuminated
May 17
Waxing Crescent
May 17
First Quarter
May 24
Full
May 31
Last Quarter
Jun 8
New

Hourly Weather History & Observations

Time (CDT) Temp. Heat Index Dew Point Humidity Pressure Visibility Wind Dir Wind Speed Gust Speed Precip Events Conditions
12:15 AM 65.7 °F - 58.1 °F 77% 29.85 in 10.0 mi ESE 15.0 mph - N/A   Clear
12:35 AM 64.6 °F - 58.1 °F 79% 29.85 in 10.0 mi ESE 13.8 mph - N/A   Clear
12:55 AM 64.4 °F - 58.3 °F 80% 29.85 in 10.0 mi ESE 13.8 mph - N/A   Clear
1:15 AM 63.5 °F - 58.1 °F 83% 29.88 in 10.0 mi East 11.5 mph - N/A   Clear
1:35 AM 63.1 °F - 58.5 °F 85% 29.89 in 10.0 mi ESE 12.7 mph - N/A   Clear
1:55 AM 62.2 °F - 58.1 °F 86% 29.90 in 10.0 mi East 12.7 mph - N/A   Clear
2:15 AM 61.3 °F - 58.1 °F 89% 29.88 in 10.0 mi ESE 12.7 mph - N/A   Scattered Clouds
2:35 AM 60.8 °F - 57.6 °F 89% 29.88 in 10.0 mi ESE 13.8 mph 17.3 mph N/A   Clear
2:55 AM 60.8 °F - 57.4 °F 88% 29.88 in 10.0 mi East 13.8 mph - N/A   Clear
3:15 AM 60.1 °F - 57.4 °F 91% 29.87 in 10.0 mi ESE 13.8 mph - N/A   Clear
3:35 AM 59.5 °F - 57.2 °F 92% 29.87 in 10.0 mi ESE 12.7 mph - N/A   Clear
3:55 AM 59.4 °F - 57.4 °F 93% 29.86 in 7.0 mi ESE 13.8 mph - N/A   Clear
4:15 AM 58.8 °F - 57.2 °F 94% 29.86 in 5.0 mi SE 9.2 mph - N/A   Clear
4:35 AM 57.7 °F - 56.3 °F 95% 29.87 in 4.0 mi South 8.1 mph - N/A   Scattered Clouds
4:55 AM 58.1 °F - 56.8 °F 96% 29.86 in 2.0 mi South 9.2 mph - N/A   Overcast
5:15 AM 57.7 °F - 56.7 °F 96% 29.86 in 0.5 mi South 8.1 mph - N/A   Overcast
5:35 AM 57.2 °F - 56.3 °F 97% 29.85 in 0.2 mi ESE 4.6 mph - N/A   Overcast
5:55 AM 56.7 °F - 55.8 °F 97% 29.85 in 0.2 mi ESE 6.9 mph - N/A   Overcast
6:15 AM 56.8 °F - 55.9 °F 97% 29.85 in 0.2 mi SSE 3.5 mph - N/A   Overcast
6:35 AM 56.5 °F - 55.8 °F 97% 29.85 in 0.2 mi SE 6.9 mph - N/A   Overcast
6:55 AM 56.7 °F - 55.9 °F 97% 29.85 in 0.2 mi SE 4.6 mph - N/A   Overcast
7:15 AM 56.7 °F - 55.9 °F 97% 29.86 in 0.2 mi ESE 4.6 mph - N/A   Overcast
7:35 AM 57.6 °F - 57.0 °F 98% 29.87 in 0.5 mi SSE 6.9 mph - N/A   Overcast
7:55 AM 58.6 °F - 57.9 °F 97% 29.88 in 3.0 mi SSE 5.8 mph - N/A   Overcast
8:15 AM 60.1 °F - 59.4 °F 97% 29.89 in 4.0 mi SSE 5.8 mph - N/A   Overcast
8:35 AM 62.1 °F - 61.2 °F 97% 29.90 in 4.0 mi SSE 10.4 mph - N/A   Overcast
8:55 AM 64.4 °F - 61.5 °F 90% 29.89 in 5.0 mi SSE 10.4 mph - N/A   Overcast
9:15 AM 66.9 °F - 61.9 °F 84% 29.90 in 10.0 mi SSE 10.4 mph - N/A   Mostly Cloudy
9:35 AM 69.4 °F - 61.9 °F 77% 29.90 in 10.0 mi South 11.5 mph - N/A   Scattered Clouds
9:55 AM 71.1 °F - 61.7 °F 72% 29.90 in 10.0 mi South 10.4 mph - N/A   Mostly Cloudy
10:15 AM 71.8 °F - 61.0 °F 69% 29.90 in 10.0 mi SSW 8.1 mph - N/A   Mostly Cloudy
10:35 AM 71.4 °F - 60.1 °F 67% 29.90 in 10.0 mi SSW 9.2 mph - N/A   Overcast
10:55 AM 72.0 °F - 59.4 °F 64% 29.90 in 10.0 mi SW 6.9 mph - N/A   Mostly Cloudy
11:15 AM 73.4 °F - 59.0 °F 61% 29.90 in 10.0 mi SSW 5.8 mph - N/A   Mostly Cloudy
11:35 AM 75.6 °F - 58.8 °F 56% 29.90 in 10.0 mi SSW 6.9 mph - N/A   Scattered Clouds
11:55 AM 75.7 °F - 58.5 °F 55% 29.90 in 10.0 mi Calm Calm - N/A   Scattered Clouds
12:15 PM 77.5 °F - 58.3 °F 51% 29.90 in 10.0 mi Calm Calm - N/A   Clear
12:35 PM 78.6 °F - 58.3 °F 50% 29.89 in 10.0 mi ESE 8.1 mph - N/A   Clear
12:55 PM 79.7 °F - 57.9 °F 47% 29.88 in 10.0 mi SSE 6.9 mph - N/A   Clear
1:15 PM 80.4 °F 80.8 °F 57.7 °F 46% 29.88 in 10.0 mi SSE 5.8 mph - N/A   Clear
1:35 PM 82.2 °F 82.0 °F 57.6 °F 43% 29.87 in 10.0 mi South 8.1 mph - N/A   Clear
2:15 PM 83.8 °F 83.0 °F 56.1 °F 39% 29.87 in 10.0 mi SSE 8.1 mph - N/A   Clear
2:35 PM 85.1 °F 83.8 °F 55.6 °F 36% 29.86 in 10.0 mi SE 8.1 mph - N/A   Clear
2:55 PM 86.0 °F 84.7 °F 55.8 °F 36% 29.85 in 10.0 mi South 8.1 mph 19.6 mph N/A   Clear
3:15 PM 87.1 °F 85.1 °F 54.0 °F 32% 29.84 in 10.0 mi SSE 11.5 mph 16.1 mph N/A   Clear
3:35 PM 88.3 °F 86.3 °F 54.0 °F 31% 29.84 in 10.0 mi SSE 11.5 mph 17.3 mph N/A   Clear
3:55 PM 88.7 °F 86.7 °F 54.3 °F 31% 29.83 in 10.0 mi SE 10.4 mph 18.4 mph N/A   Clear
4:15 PM 89.2 °F 87.1 °F 54.1 °F 30% 29.82 in 10.0 mi SSE 13.8 mph 18.4 mph N/A   Clear
4:35 PM 89.8 °F - 52.9 °F 28% 29.82 in 10.0 mi SE 15.0 mph 19.6 mph N/A   Clear
4:55 PM 90.3 °F 88.1 °F 53.6 °F 29% 29.81 in 10.0 mi SSE 11.5 mph 23.0 mph N/A   Clear
5:15 PM 90.0 °F 87.7 °F 53.8 °F 29% 29.80 in 10.0 mi SSE 16.1 mph - N/A   Clear
5:35 PM 89.8 °F - 52.7 °F 28% 29.79 in 10.0 mi SE 15.0 mph - N/A   Clear
5:55 PM 88.3 °F 86.3 °F 53.8 °F 31% 29.79 in 10.0 mi SE 16.1 mph 24.2 mph N/A   Clear
6:15 PM 89.1 °F 88.2 °F 58.8 °F 36% 29.78 in 10.0 mi SE 20.7 mph 28.8 mph N/A   Clear
6:35 PM 86.2 °F 86.1 °F 60.8 °F 42% 29.78 in 10.0 mi SE 24.2 mph 29.9 mph N/A   Clear
6:55 PM 84.6 °F 85.2 °F 62.2 °F 47% 29.78 in 10.0 mi SE 23.0 mph 29.9 mph N/A   Clear
7:15 PM 82.8 °F 83.4 °F 61.9 °F 49% 29.79 in 10.0 mi SE 24.2 mph 29.9 mph N/A   Clear
7:35 PM 80.2 °F 81.3 °F 61.9 °F 53% 29.79 in 10.0 mi SE 23.0 mph 26.5 mph N/A   Clear
7:55 PM 79.5 °F - 62.1 °F 55% 29.79 in 10.0 mi SE 23.0 mph 29.9 mph N/A   Clear
8:15 PM 78.3 °F - 61.2 °F 56% 29.79 in 10.0 mi SE 21.9 mph - N/A   Clear
8:35 PM 77.0 °F - 62.1 °F 60% 29.79 in 10.0 mi SE 20.7 mph 27.6 mph N/A   Clear
8:55 PM 75.6 °F - 63.5 °F 66% 29.80 in 10.0 mi SE 20.7 mph 26.5 mph N/A   Clear
9:15 PM 74.5 °F - 63.5 °F 68% 29.80 in 10.0 mi SE 23.0 mph 27.6 mph N/A   Clear
9:35 PM 73.4 °F - 63.7 °F 71% 29.82 in 10.0 mi SE 20.7 mph 26.5 mph N/A   Clear
9:55 PM 72.1 °F - 63.5 °F 74% 29.82 in 10.0 mi SSE 16.1 mph - N/A   Clear
10:15 PM 71.1 °F - 63.0 °F 75% 29.82 in 10.0 mi SSE 16.1 mph - N/A   Clear
10:35 PM 70.7 °F - 63.3 °F 77% 29.83 in 10.0 mi SE 16.1 mph - N/A   Clear
10:55 PM 70.0 °F - 63.5 °F 80% 29.84 in 10.0 mi SE 17.3 mph - N/A   Clear
11:15 PM 70.7 °F - 65.3 °F 83% 29.84 in 7.0 mi SE 16.1 mph 25.3 mph N/A   Mostly Cloudy
11:35 PM 71.8 °F - 66.7 °F 84% 29.84 in 7.0 mi SSE 17.3 mph 25.3 mph N/A   Overcast
11:55 PM 72.5 °F - 68.2 °F 86% 29.84 in 5.0 mi SSE 20.7 mph 26.5 mph N/A   Overcast